Showing default

MENUT, 55010

Orbit data source: Space-Track

MENUT, 55010 is a Spanish payload satellite in SSO that was launched on Tue, 03 Jan 2023 UTC via an FALCON 9 launch vehicle from the Air Force Eastern Test Range (AFETR). Payload-class satellites include a variety of spacecraft equipped with specific instruments for various scientific and technological missions. These include communications satellites like Starlink; space stations such as the ISS; scientific satellites like the Hubble; Earth observation satellites from companies like Planet Labs, Umbra, and HawkEye 360; GPS; miniature CubeSats for education and research; and military/defense satellites.

Loading next visibility...
Identifier
55010, 2023-001B
Orbit
SSO
Country
Flag of ESES / SPN
Related business
Manufacturer
Open Cosmos
Mission
Operational Commercial Imaging
Bus & Motor
CUBESAT 6U, Unknown motor
Mass
10 kg wet, ~10 kg dry
Launch date (UTC)
2023-01-03 (3 years ago)
Launch vehicle
FALCON 9
Launch site
Air Force Eastern Test Range (AFETR)
Object type
Payload
Rocket body
Debris
Shape & HBR
Box + 2 Pan, 0.1 m
Radar Cross Section
0.080 m², Medium (>0.1 m² and < 1m²)

Expand to show TLE details & history
Last TLE update: 9 hours ago

TLE from 9 hours ago
0 MENUT
1 55010U 23001B   25286.94695616  .00036920  00000-0  10773-2 0  9996
2 55010  97.3616 346.6528 0004127 279.2845  80.7932 15.35239182154334
Epoch: 2025-10-13T22:43Z
TLE epoch observation values (Epoch: 2025-10-13T22:43:37.012Z)
Latitude
0.00002°
Longitude
-16.99385°
Altitude
462.872 km
Speed
7.635 km/s
True Right ascension
23h 06m 36s
True Declination
0° 00' 00"
Sunlit
Object was in full shadow at epoch
Visualization orbit readout
Latitude
Unknown
Longitude
Unknown
Altitude
Unknown
Speed
Unknown
Apparent Right ascension
Unknown
Apparent Declination
Unknown
Sunlit
N/A
Visualization observer readout
Local Sidereal Time
02:26:51
Azimuth
Unknown
Elevation
Unknown
Doppler factor
Unknown
Orbital elements
Apogee altitude
459.975 km
Perigee altitude
454.333 km
Semi-major axis
6,835.291 km
Eccentricity
0.00041
Inclination
97.3616°
RAAN
346.6528°
Arg. of periapsis
279.2845°
True anomaly
80.83989°
Mean anomaly
80.7932°
Eccentric anomaly
80.81654°
Mean motion
3.84068 °/min
Orbital period
93.73 mins
BSTAR
0.0010773
Loading maneuver chart data...
Computing Atmospheric mass density...
Loading historical data...
Loading historical data...
Loading historical data...
Loading historical data...
Loading historical data...
Loading historical data...
Loading historical data...

Documentation

Showing up to 5 results
|